Regional Weather Roundup
Issued by NWS

Home | Current Version | Previous Version | Text Only | Print | Product List | Glossary On
Versions: 1 2 3 4 5 6 7 8 9 10 11 12 13 14 15 16 17 18 19 20 21 22 23 24 25 26 27 28 29 30 31 32 33 34 35 36 37 38 39 40 41 42 43 44 45 46 47 48 49 50
000
ASUS46 KSEW 110510
RWRWA

WASHINGTON REGIONAL WEATHER ROUNDUP
NATIONAL WEATHER SERVICE SEATTLE WA
1000 PM PDT THU JUL 10 2014

NOTE:"FAIR" INDICATES FEW OR NO CLOUDS BELOW 12,000 FEET WITH NO
SIGNIFICANT WEATHER AND/OR OBSTRUCTIONS TO VISIBILITY.

WAZ505-507>509-110600-
SEATTLE, TACOMA, EVERETT, AND VICINITY

CITY           SKY/WX    TMP DP  RH WIND       PRES   REMARKS
EVERETT        CLEAR     64  53  67 N7        29.93S
BOEING FIELD   CLEAR     75  51  43 W3        29.90R
RENTON         CLEAR     73  56  54 NW3       29.90R
SEATAC AIRPORT CLEAR     71  50  47 N5        29.92R
JBLM-MCCHORD   CLEAR     71  50  47 NE3       29.91R
PUYALLUP       FAIR      64  55  72 CALM      29.92S
JBLM-FT LEWIS  CLEAR     74  52  45 W3        29.91R
TACOMA NARROWS CLEAR     73  46  38 N10       29.91R
$$

WAZ001-503-506-510-514-515-110600-
NORTH INTERIOR

CITY           SKY/WX    TMP DP  RH WIND       PRES   REMARKS
BELLINGHAM     CLEAR     63  57  81 CALM      29.91R
FRIDAY HARBOR  CLEAR     54  51  90 CALM      29.92S
EASTSOUND      CLEAR     64  54  68 CALM      29.89S
PORT ANGELES   CLEAR     56  52  86 NW3       29.93S
NAS WHIDBEY    CLEAR     57  51  80 CALM      29.93S
BURLINGTON     CLEAR     61  55  82 CALM      29.93R
$$

WAZ020-022-039-040-504-511-512-110600-
SOUTHWEST INTERIOR

CITY           SKY/WX    TMP DP  RH WIND       PRES   REMARKS
SHELTON        CLEAR     67  55  65 SW6       29.90R
OLYMPIA        CLEAR     73  56  54 N8        29.91R
CHEHALIS       FAIR      70  59  68 CALM      29.91R
KELSO          CLEAR     66  55  68 NW3       29.94R
VANCOUVER      CLEAR     75  57  53 N7        29.86R
SCAPPOOSE, OR  CLEAR     71  59  65 NE3       29.87R
PORTLAND, OR   CLEAR     74  59  59 NW7       29.87R
$$

WAZ021-516-517-110600-
WASHINGTON COAST

CITY           SKY/WX    TMP DP  RH WIND       PRES   REMARKS
FORKS          CLEAR     56  54  93 W3        29.94R
HOQUIAM        CLOUDY    57  55  93 S7        29.95R
ASTORIA, OR    CLOUDY    58  54  86 W3        29.95R
$$

WAZ019-023-024-040-518-519-110600-
CASCADE MOUNTAINS AND COLUMBIA GORGE

CITY           SKY/WX    TMP DP  RH WIND       PRES   REMARKS
STAMPEDE PASS  NOT AVBL
TROUTDALE, OR  CLEAR     76  58  53 CALM      29.86R
THE DALLES, OR CLEAR     79  57  46 CALM      29.79R
$$

WAZ026-027-041>044-520-521-110600-
EAST SLOPES

CITY           SKY/WX    TMP DP  RH WIND       PRES   REMARKS
OMAK           CLEAR     80  37  21 N12       29.86R
WENATCHEE      CLEAR     82  43  25 N7        29.83R
ELLENSBURG     CLEAR     76  45  33 NW21G29   29.87R
YAKIMA         CLEAR     81  42  25 NW6       29.82R
$$

WAZ028-034-035-110600-
COLUMBIA BASIN

CITY           SKY/WX    TMP DP  RH WIND       PRES   REMARKS
EPHRATA        CLEAR     82  28  14 NW6       29.80R
MOSES LAKE     CLEAR     86  39  19 CALM      29.80R
HANFORD        NOT AVBL
PASCO          CLEAR     77  49  37 CALM      29.76R
HERMISTON, OR  PTCLDY    71  50  47 E5        29.77R
$$

WAZ036>038-110600-
NORTHEAST WASHINGTON

CITY           SKY/WX    TMP DP  RH WIND       PRES   REMARKS
SPOKANE GEIGER MOCLDY    81  35  19 E7        29.86R
SPOKANE FELTS  CLEAR     76  43  30 NE6       29.85R
FAIRCHILD AFB  CLEAR     73  41  31 NE2       29.87R
COEURDALENE,ID CLEAR     72  54  53 E5        29.87R
DEER PARK      CLEAR     67  50  54 SW3       29.87R
$$

WAZ029>033-110600-
SOUTHEAST WASHINGTON

CITY           SKY/WX    TMP DP  RH WIND       PRES   REMARKS
PULLMAN        CLEAR     59  46  62 CALM      29.91R
LEWISTON, ID   CLEAR     79  32  18 CALM      29.82R
WALLA WALLA    PTCLDY    74  42  31 E8        29.82R
PENDLETON, OR  MOCLDY    80  32  17 E3        29.83R
$$



USA.gov is the U.S. government's official web portal to all federal, state and local government web resources and services.